FW0267 Weather Reports


time (UTC)temp
C
wind
direction
speed
KPH
gust
KPH
rain 1hr
cm
rain 24hr
cm
rain mn
cm
humidity
%
barometer
mb
20260901144544 -17 123 0.0 1.6 0.00 0.00 0.00 1018.5
20260901144040 -17 128 0.0 3.2 0.00 0.00 0.00 1018.5
20260901143537 -17 140 0.0 3.2 0.00 0.00 0.00 1018.5
20260901143035 -17 129 0.0 1.6 0.00 0.00 0.00 1018.5
20260901142534 -17 130 0.0 1.6 0.00 0.00 0.00 1018.4
20260901142032 -17 141 0.0 1.6 0.00 0.00 0.00 1018.4
20260901141531 -17 138 0.0 1.6 0.00 0.00 0.00 1018.5
20260901141032 -17 90 0.0 3.2 0.00 0.00 0.00 1018.4
20260901140527 -17 20 0.0 3.2 0.00 0.00 0.00 1018.4
20260901140026 -17 101 0.0 3.2 0.00 0.00 0.00 1018.3
20260901135525 -17 120 0.0 1.6 0.00 0.00 0.00 1018.4
20260901135023 -17 138 0.0 1.6 0.00 0.00 0.00 1018.4
20260901134521 -17 115 0.0 1.6 0.00 0.00 0.00 1018.4
20260901134021 -17 128 0.0 1.6 0.00 0.00 0.00 1018.3
20260901133519 -17 126 0.0 0.0 0.00 0.00 0.00 1018.5
20260901133018 -17 126 0.0 3.2 0.00 0.00 0.00 1018.5
20260901132516 -17 126 0.0 3.2 0.00 0.00 0.00 1018.6
20260901132014 -17 125 0.0 1.6 0.00 0.00 0.00 1018.5
20260901131520 -17 119 0.0 1.6 0.00 0.00 0.00 1018.6
20260901131012 -17 113 0.0 1.6 0.00 0.00 0.00 1018.6
20260901130511 -17 128 0.0 1.6 0.00 0.00 0.00 1018.6
20260901130009 -17 126 0.0 1.6 0.00 0.00 0.00 1018.7
20260901125507 -17 128 0.0 1.6 0.00 0.00 0.00 1018.7
20260901125006 -17 130 0.0 0.0 0.00 0.00 0.00 1018.7
20260901124505 -17 123 0.0 0.0 0.00 0.00 0.00 1018.7
20260901124004 -17 123 0.0 0.0 0.00 0.00 0.00 1018.6
20260901123504 -17 123 0.0 1.6 0.00 0.00 0.00 1018.7
20260901123114 -17 123 0.0 1.6 0.00 0.00 0.00 1018.6
20260901122559 -17 123 0.0 1.6 0.00 0.00 0.00 1018.7
20260901122056 -17 122 0.0 1.6 0.00 0.00 0.00 1018.7
20260901121604 -17 124 0.0 1.6 0.00 0.00 0.00 1018.6
20260901121056 -17 123 0.0 1.6 0.00 0.00 0.00 1018.7
20260901120556 -17 114 0.0 0.0 0.00 0.00 0.00 1018.6
20260901120059 -17 113 0.0 0.0 0.00 0.00 0.00 1018.7
20260901115557 -17 113 0.0 0.0 0.00 0.00 0.00 1018.6
20260901115052 -17 113 0.0 0.0 0.00 0.00 0.00 1018.5
20260901114555 -17 113 0.0 1.6 0.00 0.00 0.00 1018.5
20260901114050 -17 113 0.0 1.6 0.00 0.00 0.00 1018.5
20260901113549 -17 113 0.0 1.6 0.00 0.00 0.00 1018.4
20260901113056 -17 116 0.0 1.6 0.00 0.00 0.00 1018.3
20260901112547 -17 117 0.0 1.6 0.00 0.00 0.00 1018.1
20260901112044 -17 117 0.0 0.0 0.00 0.00 0.00 1018.2
20260901111544 -17 117 0.0 0.0 0.00 0.00 0.00 1018.2
20260901111041 -17 117 0.0 0.0 0.00 0.00 0.00 1018.1
20260901110539 -17 117 0.0 1.6 0.00 0.00 0.00 1018.1
20260901110038 -17 117 0.0 1.6 0.00 0.00 0.00 1018.1
20260901105536 -17 121 0.0 1.6 0.00 0.00 0.00 1018.0
20260901105037 -17 121 0.0 3.2 0.00 0.00 0.00 1017.9
20260901104540 -17 119 0.0 3.2 0.00 0.00 0.00 1017.9
20260901104032 -17 117 0.0 1.6 0.00 0.00 0.00 1017.9
20260901103530 -17 117 0.0 1.6 0.00 0.00 0.00 1017.9
20260901103031 -17 108 0.0 0.0 0.00 0.00 0.00 1017.9
20260901102528 -17 108 0.0 0.0 0.00 0.00 0.00 1018.0
20260901102026 -17 108 0.0 0.0 0.00 0.00 0.00 1018.0
20260901101525 -17 108 0.0 1.6 0.00 0.00 0.00 1018.0
20260901101023 -17 108 0.0 1.6 0.00 0.00 0.00 1018.0
20260901100524 -17 114 0.0 3.2 0.00 0.00 0.00 1018.0
20260901100023 -17 115 0.0 3.2 0.00 0.00 0.00 1017.9
20260901095523 -17 128 0.0 3.2 0.00 0.00 0.00 1017.9
20260901095022 -17 127 0.0 3.2 0.00 0.00 0.00 1017.9
20260901094530 -17 128 0.0 1.6 0.00 0.00 0.00 1018.0
20260901094019 -17 127 0.0 0.0 0.00 0.00 0.00 1018.1
20260901093517 -17 127 0.0 0.0 0.00 0.00 0.00 1018.0
20260901093016 -17 127 0.0 1.6 0.00 0.00 0.00 1018.2
20260901092514 -17 127 0.0 1.6 0.00 0.00 0.00 1018.1
20260901092013 -17 127 0.0 1.6 0.00 0.00 0.00 1018.1
20260901091511 -17 127 0.0 1.6 0.00 0.00 0.00 1018.0
20260901091011 -17 113 0.0 1.6 0.00 0.00 0.00 1018.0
20260901090508 -17 113 0.0 1.6 0.00 0.00 0.00 1017.8
20260901090010 -17 113 0.0 1.6 0.00 0.00 0.00 1017.8
20260901085506 -17 117 0.0 1.6 0.00 0.00 0.00 1017.7
20260901085005 -17 122 0.0 0.0 0.00 0.00 0.00 1017.7
20260901084503 -17 122 0.0 0.0 0.00 0.00 0.00 1017.8
20260901084002 -17 122 0.0 0.0 0.00 0.00 0.00 1017.8
20260901083500 -17 122 0.0 0.0 0.00 0.00 0.00 1017.7
20260901083100 -17 122 0.0 1.6 0.00 0.00 0.00 1017.8
20260901082556 -17 122 0.0 1.6 0.00 0.00 0.00 1017.9
20260901082055 -17 123 0.0 1.6 0.00 0.00 0.00 1017.8
20260901081554 -17 123 0.0 1.6 0.00 0.00 0.00 1017.8
20260901081055 -17 122 0.0 1.6 0.00 0.00 0.00 1018.0
20260901080552 -17 123 0.0 1.6 0.00 0.00 0.00 1017.9
20260901080055 -17 126 0.0 0.0 0.00 0.00 0.00 1018.0
20260901075551 -17 126 0.0 0.0 0.00 0.00 0.00 1018.0
20260901075050 -17 126 0.0 1.6 0.00 0.00 0.00 1018.0
20260901074556 -17 126 0.0 3.2 0.00 0.00 0.00 1018.1
20260901074044 -17 126 0.0 3.2 0.00 0.00 0.00 1018.0
20260901073543 -17 124 0.0 1.6 0.00 0.00 0.00 1018.0
20260901073041 -17 124 0.0 1.6 0.00 0.00 0.00 1018.1
20260901072539 -17 121 0.0 1.6 0.00 0.00 0.00 1018.0
20260901072038 -17 121 0.0 1.6 0.00 0.00 0.00 1018.1
20260901071537 -17 122 0.0 1.6 0.00 0.00 0.00 1018.2
20260901071035 -17 123 0.0 0.0 0.00 0.00 0.00 1018.3
20260901070534 -17 123 0.0 0.0 0.00 0.00 0.00 1018.4
20260901070036 -17 123 0.0 1.6 0.00 0.00 0.00 1018.4
20260901065534 -17 123 0.0 1.6 0.00 0.00 0.00 1018.5
20260901065032 -17 124 0.0 3.2 0.00 0.00 0.00 1018.5
20260901064529 -17 126 0.0 3.2 0.00 0.00 0.00 1018.4
20260901064027 -17 126 0.0 1.6 0.00 0.00 0.00 1018.5
20260901063525 -17 126 0.0 1.6 0.00 0.00 0.00 1018.5
20260901063025 -17 126 0.0 1.6 0.00 0.00 0.00 1018.6
20260901062523 -17 126 0.0 3.2 0.00 0.00 0.00 1018.6
20260901062023 -17 121 0.0 3.2 0.00 0.00 0.00 1018.6
20260901061520 -17 123 0.0 0.0 0.00 0.00 0.00 1018.7
20260901061018 -17 123 0.0 0.0 0.00 0.00 0.00 1018.7
20260901060517 -17 123 0.0 1.6 0.00 0.00 0.00 1018.8
20260901060015 -17 123 0.0 3.2 0.00 0.00 0.00 1018.7
20260901055513 -17 126 0.0 3.2 0.00 0.00 0.00 1018.8
20260901055012 -17 127 0.0 3.2 0.00 0.00 0.00 1018.8
20260901054512 -17 127 0.0 3.2 0.00 0.00 0.00 1018.9
20260901054009 -17 126 0.0 1.6 0.00 0.00 0.00 1019.0
20260901053508 -17 121 0.0 1.6 0.00 0.00 0.00 1019.1
20260901053107 -17 121 0.0 1.6 0.00 0.00 0.00 1019.0
20260901052504 -17 124 0.0 1.6 0.00 0.00 0.00 1019.0
20260901052002 -17 123 0.0 1.6 0.00 0.00 0.00 1019.1
20260901051502 -17 123 0.0 1.6 0.00 0.00 0.00 1019.1
20260901051100 -17 124 0.0 1.6 0.00 0.00 0.00 1019.1
20260901050558 -17 130 0.0 1.6 0.00 0.00 0.00 1019.1
20260901050100 -17 130 0.0 1.6 0.00 0.00 0.00 1019.2
20260901045556 -17 123 0.0 1.6 0.00 0.00 0.00 1019.2
20260901045055 -17 125 0.0 1.6 0.00 0.00 0.00 1019.2
20260901044553 -17 131 0.0 1.6 0.00 0.00 0.00 1019.2
20260901044052 -17 136 0.0 3.2 0.00 0.00 0.00 1019.3
20260901043550 -17 135 0.0 3.2 0.00 0.00 0.00 1019.3
20260901043054 -17 140 0.0 1.6 0.00 0.00 0.00 1019.3
20260901042550 -17 142 0.0 1.6 0.00 0.00 0.00 1019.3
20260901042045 -17 132 0.0 1.6 0.00 0.00 0.00 1019.3
20260901041544 -17 126 0.0 1.6 0.00 0.00 0.00 1019.2
20260901041042 -17 123 0.0 3.2 0.00 0.00 0.00 1019.1
20260901040544 -17 132 0.0 3.2 0.00 0.00 0.00 1019.1
20260901040040 -17 130 1.6 3.2 0.00 0.00 0.00 1019.1
20260901035542 -17 128 0.0 1.6 0.00 0.00 0.00 1019.1
20260901035040 -17 125 0.0 3.2 0.00 0.00 0.00 1019.1
20260901034542 -17 132 0.0 3.2 0.00 0.00 0.00 1019.1
20260901034039 -17 137 1.6 3.2 0.00 0.00 0.00 1019.2
20260901033539 -17 126 0.0 3.2 0.00 0.00 0.00 1019.1
20260901033102 -17 126 0.0 3.2 0.00 0.00 0.00 1019.1
20260901032539 -17 128 1.6 3.2 0.00 0.00 0.00 1019.0
20260901032038 -17 109 1.6 3.2 0.00 0.00 0.00 1019.1
20260901031541 -17 128 1.6 3.2 0.00 0.00 0.00 1019.0
20260901031037 -17 122 1.6 3.2 0.00 0.00 0.00 1019.1
20260901030640 -17 134 0.0 3.2 0.00 0.00 0.00 1019.1
20260901030039 -17 134 0.0 4.8 0.00 0.00 0.00 1019.2
20260901025537 -17 123 1.6 4.8 0.00 0.00 0.00 1019.0
20260901025037 -17 121 1.6 3.2 0.00 0.00 0.00 1019.1
20260901024540 -17 119 1.6 4.8 0.00 0.00 0.00 1019.0
20260901024037 -17 132 1.6 3.2 0.00 0.00 0.00 1019.1
20260901023537 -17 130 0.0 1.6 0.00 0.00 0.00 1019.1
20260901023043 -17 130 0.0 3.2 0.00 0.00 0.00 1019.1
20260901022535 -17 111 0.0 3.2 0.00 0.00 0.00 1019.1
20260901022035 -17 131 1.6 3.2 0.00 0.00 0.00 1019.1
20260901021546 -17 127 1.6 3.2 0.00 0.00 0.00 1019.2
20260901021035 -17 120 1.6 3.2 0.00 0.00 0.00 1019.1
20260901020535 -17 121 0.0 1.6 0.00 0.00 0.00 1019.2
20260901020040 -17 121 0.0 3.2 0.00 0.00 0.00 1019.3
20260901015534 -17 126 0.0 3.2 0.00 0.00 0.00 1019.2
20260901015034 -17 132 0.0 3.2 0.00 0.00 0.00 1019.1
20260901014537 -17 121 0.0 1.6 0.00 0.00 0.00 1019.1
20260901014034 -17 95 0.0 3.2 0.00 0.00 0.00 1019.0
20260901013534 -17 111 0.0 3.2 0.00 0.00 0.00 1018.9
20260901013039 -17 157 0.0 3.2 0.00 0.00 0.00 1018.9
20260901012532 -17 157 0.0 3.2 0.00 0.00 0.00 1019.1
20260901012033 -17 132 1.6 4.8 0.00 0.00 0.00 1018.9
20260901011535 -17 117 0.0 4.8 0.00 0.00 0.00 1018.9
20260901011033 -17 126 1.6 3.2 0.00 0.00 0.00 1018.8
20260901010533 -17 118 0.0 3.2 0.00 0.00 0.00 1018.7
20260901010036 -17 97 0.0 3.2 0.00 0.00 0.00 1018.7
20260901005532 -17 107 0.0 3.2 0.00 0.00 0.00 1018.7
20260901005032 -17 109 0.0 3.2 0.00 0.00 0.00 1018.9
20260901004532 -17 109 0.0 3.2 0.00 0.00 0.00 1018.9
20260901004032 -17 126 1.6 3.2 0.00 0.00 0.00 1018.9
20260901003532 -17 125 1.6 3.2 0.00 0.00 0.00 1018.8
20260901003036 -17 120 0.0 1.6 0.00 0.00 0.00 1018.8
20260901002532 -17 126 0.0 3.2 0.00 0.00 0.00 1018.8
20260901002031 -17 120 0.0 3.2 0.00 0.00 0.00 1018.8
20260901001541 -17 117 0.0 1.6 0.00 0.00 0.00 1018.7
20260901001030 -17 136 0.0 3.2 0.00 0.00 0.00 1018.6
20260901000531 -17 105 0.0 4.8 0.00 0.00 0.00 1018.5
20260901000031 -17 99 0.0 4.8 0.00 0.00 0.00 1018.4
20260831235534 -17 126 0.0 1.6 0.00 0.00 0.00 1018.4
20260831235030 -17 108 0.0 1.6 0.00 0.00 0.00 1018.3
20260831234531 -17 111 0.0 1.6 0.00 0.00 0.00 1018.3
20260831234030 -17 112 0.0 3.2 0.00 0.00 0.00 1018.4
20260831233530 -17 82 0.0 3.2 0.00 0.00 0.00 1018.2
20260831233030 -17 101 0.0 1.6 0.00 0.00 0.00 1018.3
20260831232530 -17 111 0.0 1.6 0.00 0.00 0.00 1018.3
20260831232029 -17 109 0.0 1.6 0.00 0.00 0.00 1018.3
20260831231529 -17 113 0.0 1.6 0.00 0.00 0.00 1018.2
20260831231029 -17 113 0.0 1.6 0.00 0.00 0.00 1018.2
20260831230533 -17 102 0.0 1.6 0.00 0.00 0.00 1018.1
20260831230029 -17 94 0.0 1.6 0.00 0.00 0.00 1018.0
20260831225533 -17 109 0.0 1.6 0.00 0.00 0.00 1018.0
20260831225029 -17 45 0.0 1.6 0.00 0.00 0.00 1017.9
20260831224528 -17 88 0.0 1.6 0.00 0.00 0.00 1017.9
20260831224028 -17 110 0.0 3.2 0.00 0.00 0.00 1017.9
20260831223529 -17 133 0.0 3.2 0.00 0.00 0.00 1018.0
20260831223027 -17 45 0.0 3.2 0.00 0.00 0.00 1017.9
20260831222527 -17 92 0.0 3.2 0.00 0.00 0.00 1018.1
20260831222026 -17 115 0.0 1.6 0.00 0.00 0.00 1018.1
20260831221534 -17 109 0.0 3.2 0.00 0.00 0.00 1018.2
20260831221026 -17 55 1.6 4.8 0.00 0.00 0.00 1018.1
20260831220526 -17 53 0.0 4.8 0.00 0.00 0.00 1018.0
20260831220026 -17 17 0.0 3.2 0.00 0.00 0.00 1018.1
20260831215524 -17 360 0.0 3.2 0.00 0.00 0.00 1017.9
20260831215026 -17 130 0.0 3.2 0.00 0.00 0.00 1017.9
20260831214522 -17 101 0.0 3.2 0.00 0.00 0.00 1017.9
20260831214020 -17 31 0.0 4.8 0.00 0.00 0.00 1017.9
20260831213519 -17 117 0.0 4.8 0.00 0.00 0.00 1017.9
20260831213019 -17 13 1.6 3.2 0.00 0.00 0.00 1017.9
20260831212519 -17 95 0.0 3.2 0.00 0.00 0.00 1018.0
20260831212019 -17 147 0.0 3.2 0.00 0.00 0.00 1018.1
20260831211518 -17 139 0.0 3.2 0.00 0.00 0.00 1018.1
20260831211015 -17 139 0.0 3.2 0.00 0.00 0.00 1018.0
20260831210514 -17 113 0.0 3.2 0.00 0.00 0.00 1018.1
20260831210013 -17 74 0.0 3.2 0.00 0.00 0.00 1017.9
20260831205511 -17 65 0.0 3.2 0.00 0.00 0.00 1018.1
20260831205009 -17 50 0.0 3.2 0.00 0.00 0.00 1018.0
20260831204510 -17 14 0.0 3.2 0.00 0.00 0.00 1017.9
20260831204007 -17 360 0.0 4.8 0.00 0.00 0.00 1018.1
20260831203505 -17 107 1.6 4.8 0.00 0.00 0.00 1018.0
20260831203007 -17 342 0.0 3.2 0.00 0.00 0.00 1018.1
20260831202502 -17 169 0.0 3.2 0.00 0.00 0.00 1018.0
20260831202002 -17 22 0.0 3.2 0.00 0.00 0.00 1018.0
20260831201600 -17 114 0.0 3.2 0.00 0.00 0.00 1018.2
20260831201058 -17 190 1.6 3.2 0.00 0.00 0.00 1018.1
20260831200557 -17 91 0.0 3.2 0.00 0.00 0.00 1018.1
20260831200058 -17 132 0.0 4.8 0.00 0.00 0.00 1018.2
20260831195553 -17 36 1.6 4.8 0.00 0.00 0.00 1018.2
20260831195052 -17 24 1.6 3.2 0.00 0.00 0.00 1018.2
20260831194612 -17 132 1.6 4.8 0.00 0.00 0.00 1018.2
20260831194050 -17 355 1.6 4.8 0.00 0.00 0.00 1018.3
20260831193547 -17 153 1.6 4.8 0.00 0.00 0.00 1018.2
20260831193052 -17 115 0.0 3.2 0.00 0.00 0.00 1018.3
20260831192545 -17 111 0.0 4.8 0.00 0.00 0.00 1018.3
20260831192044 -17 351 0.0 4.8 0.00 0.00 0.00 1018.4
20260831191542 -17 5 0.0 3.2 0.00 0.00 0.00 1018.4
20260831191044 -17 186 0.0 4.8 0.00 0.00 0.00 1018.4
20260831190541 -17 36 1.6 4.8 0.00 0.00 0.00 1018.4
20260831190104 -17 101 1.6 4.8 0.00 0.00 0.00 1018.5
20260831185538 -17 24 1.6 4.8 0.00 0.00 0.00 1018.6
20260831185036 -17 94 0.0 3.2 0.00 0.00 0.00 1018.6
20260831184534 -17 342 1.6 4.8 0.00 0.00 0.00 1018.7
20260831184035 -17 44 1.6 4.8 0.00 0.00 0.00 1018.6
20260831183530 -17 169 0.0 3.2 0.00 0.00 0.00 1018.7
20260831183031 -17 5 0.0 3.2 0.00 0.00 0.00 1018.7
20260831182528 -17 355 1.6 3.2 0.00 0.00 0.00 1018.8
20260831182027 -17 110 0.0 4.8 0.00 0.00 0.00 1018.9
20260831181527 -17 332 1.6 6.4 0.00 0.00 0.00 1018.9
20260831181023 -17 69 3.2 6.4 0.00 0.00 0.00 1019.0
20260831180521 -17 78 0.0 4.8 0.00 0.00 0.00 1019.1
20260831180021 -17 100 0.0 4.8 0.00 0.00 0.00 1019.1
20260831175518 -17 76 1.6 3.2 0.00 0.00 0.00 1019.2
20260831175018 -17 360 1.6 4.8 0.00 0.00 0.00 1019.3
20260831174516 -17 71 1.6 4.8 0.00 0.00 0.00 1019.3
20260831174015 -17 53 0.0 3.2 0.00 0.00 0.00 1019.3
20260831173516 -17 26 1.6 4.8 0.00 0.00 0.00 1019.4
20260831173012 -17 94 0.0 3.2 0.00 0.00 0.00 1019.4
20260831172510 -17 111 0.0 3.2 0.00 0.00 0.00 1019.4
20260831172009 -17 143 0.0 4.8 0.00 0.00 0.00 1019.4
20260831171508 -17 123 1.6 4.8 0.00 0.00 0.00 1019.4
20260831171006 -17 129 0.0 4.8 0.00 0.00 0.00 1019.4
20260831170505 -17 109 1.6 4.8 0.00 0.00 0.00 1019.4
20260831170006 -17 342 0.0 4.8 0.00 0.00 0.00 1019.4
20260831165504 -17 36 1.6 4.8 0.00 0.00 0.00 1019.4
20260831165059 -17 78 0.0 3.2 0.00 0.00 0.00 1019.6
20260831164559 -17 360 0.0 4.8 0.00 0.00 0.00 1019.6
20260831164100 -17 123 1.6 4.8 0.00 0.00 0.00 1019.6
20260831163555 -17 355 0.0 3.2 0.00 0.00 0.00 1019.8
20260831163054 -17 119 0.0 4.8 0.00 0.00 0.00 1019.7
20260831162556 -17 120 0.0 4.8 0.00 0.00 0.00 1019.8
20260831162051 -17 157 0.0 3.2 0.00 0.00 0.00 1019.9
20260831161550 -17 67 0.0 3.2 0.00 0.00 0.00 1019.8
20260831161048 -17 119 1.6 3.2 0.00 0.00 0.00 1019.9
20260831160546 -17 146 0.0 3.2 0.00 0.00 0.00 1019.9
20260831160045 -17 144 0.0 3.2 0.00 0.00 0.00 1019.8
20260831155545 -17 126 0.0 3.2 0.00 0.00 0.00 1019.9
20260831155042 -17 126 0.0 3.2 0.00 0.00 0.00 1020.1
20260831154544 -17 118 0.0 3.2 0.00 0.00 0.00 1020.1
20260831154039 -17 114 0.0 3.2 0.00 0.00 0.00 1020.2
20260831153541 -17 114 0.0 4.8 0.00 0.00 0.00 1020.1
20260831153045 -17 113 0.0 4.8 0.00 0.00 0.00 1020.1
20260831152535 -17 140 0.0 1.6 0.00 0.00 0.00 1020.1
20260831152033 -17 123 0.0 3.2 0.00 0.00 0.00 1020.1
20260831151540 -17 123 0.0 3.2 0.00 0.00 0.00 1020.1
20260831151030 -17 144 0.0 3.2 0.00 0.00 0.00 1020.1
20260831150530 -17 141 0.0 3.2 0.00 0.00 0.00 1020.1
20260831150028 -17 140 0.0 3.2 0.00 0.00 0.00 1020.1
20260831145526 -17 141 0.0 3.2 0.00 0.00 0.00 1020.1
20260831145027 -17 149 0.0 3.2 0.00 0.00 0.00 1020.3